Weather History for KXNA - March, 2014

Change the Weather History Date:

Saturday, March 22, 2014

  Actual Average Record
Temperature  
Mean Temperature 48 °F -  
Max Temperature 59 °F - - ()
Min Temperature 39 °F - - ()
Degree Days  
Heating Degree Days 17    
Moisture  
Dew Point 30 °F    
Average Humidity 54    
Maximum Humidity 86    
Minimum Humidity 27    
Precipitation  
Precipitation 0.04 in - - ()
Sea Level Pressure  
Sea Level Pressure 30.13 in    
Wind  
Wind Speed 10 mph (NNE)    
Max Wind Speed 21 mph    
Max Gust Speed 26 mph    
Visibility 10 miles    
Events Rain    
T = Trace of Precipitation, MM = Missing Value Source: NWS Daily Summary

Daily Weather History Graph

Daily Weather History Graph

Search for Another Location

Airport or City:

Trip Planner

Search our weather history database for the weather conditions in past years. The results will help you decide how hot, cold, wet, or windy it might be!

Date:

Astronomy

Mar. 22, 2014 Rise Set
Actual Time 7:17 AM CDT 7:30 PM CDT
Civil Twilight 6:52 AM CDT 7:56 PM CDT
Nautical Twilight 6:22 AM CDT 8:26 PM CDT
Astronomical Twilight 5:51 AM CDT 8:57 PM CDT
Moon 12:42 AM CDT (3/22) 11:10 AM CDT (3/22)
Length of Visible Light 13h 04m
Length of Day
12h 12m
Waning Gibbous, 65% of the Moon is Illuminated
Mar 22
Waning Gibbous
Mar 23
Last Quarter
Mar 30
New
Apr 7
First Quarter
Apr 15
Full

Hourly Weather History & Observations

Time (CDT) Temp. Windchill Dew Point Humidity Pressure Visibility Wind Dir Wind Speed Gust Speed Precip Events Conditions
12:53 AM 48.0 °F - 34.0 °F 58% 30.02 in 10.0 mi NNE 4.6 mph - N/A   Clear
1:53 AM 46.9 °F - 33.1 °F 59% 30.03 in 10.0 mi NNE 6.9 mph - N/A   Clear
2:53 AM 46.9 °F - 32.0 °F 56% 30.04 in 10.0 mi NNE 8.1 mph - N/A   Clear
3:53 AM 44.1 °F 38.1 °F 32.0 °F 63% 30.04 in 10.0 mi NNE 11.5 mph - N/A   Clear
4:53 AM 43.0 °F 36.8 °F 30.9 °F 62% 30.06 in 10.0 mi NNE 11.5 mph - N/A   Clear
5:53 AM 41.0 °F 35.2 °F 30.0 °F 65% 30.08 in 10.0 mi North 9.2 mph - N/A   Clear
6:53 AM 39.9 °F 32.5 °F 30.9 °F 70% 30.13 in 10.0 mi North 12.7 mph - N/A   Clear
7:53 AM 39.0 °F 31.0 °F 32.0 °F 76% 30.15 in 10.0 mi NNE 13.8 mph - N/A   Clear
8:53 AM 41.0 °F 33.5 °F 32.0 °F 70% 30.18 in 10.0 mi NNE 13.8 mph - N/A   Clear
9:53 AM 44.1 °F 37.7 °F 32.0 °F 63% 30.20 in 10.0 mi NE 12.7 mph - N/A   Clear
10:53 AM 46.0 °F 41.0 °F 30.0 °F 54% 30.21 in 10.0 mi NE 10.4 mph - N/A   Clear
11:53 AM 50.0 °F - 28.9 °F 44% 30.19 in 10.0 mi NE 12.7 mph - N/A   Clear
12:53 PM 54.0 °F - 28.0 °F 37% 30.16 in 10.0 mi NE 15.0 mph - N/A   Clear
1:53 PM 55.9 °F - 27.0 °F 33% 30.14 in 10.0 mi NE 12.7 mph - N/A   Clear
2:53 PM 57.0 °F - 24.1 °F 28% 30.12 in 10.0 mi NNE 11.5 mph - N/A   Clear
3:53 PM 57.9 °F - 24.1 °F 27% 30.08 in 10.0 mi NE 16.1 mph - N/A   Partly Cloudy
4:53 PM 55.9 °F - 24.1 °F 29% 30.08 in 10.0 mi NNE 12.7 mph - N/A   Mostly Cloudy
5:53 PM 55.0 °F - 25.0 °F 31% 30.09 in 10.0 mi NNE 10.4 mph - N/A   Overcast
6:53 PM 51.1 °F - 30.0 °F 44% 30.09 in 10.0 mi NE 10.4 mph - 0.00 in   Overcast
7:53 PM 50.0 °F - 28.9 °F 44% 30.13 in 10.0 mi NNE 9.2 mph - 0.00 in   Overcast
8:53 PM 46.0 °F 43.1 °F 36.0 °F 68% 30.17 in 10.0 mi NNE 5.8 mph - 0.01 in Rain Light Rain
9:53 PM 46.0 °F 40.2 °F 32.0 °F 58% 30.18 in 10.0 mi NNE 12.7 mph 20.7 mph 0.01 in   Overcast
10:53 PM 43.0 °F 35.7 °F 30.0 °F 60% 30.21 in 10.0 mi NNE 15.0 mph 26.5 mph 0.00 in   Overcast
11:53 PM 41.0 °F 31.6 °F 37.0 °F 86% 30.23 in 10.0 mi NNE 20.7 mph 25.3 mph 0.02 in   Overcast